FENGYUN 1C DEB, 30599

Orbit data source: Space-Track

FENGYUN 1C DEB, 30599 is space debris in SSO originally from a launch on Mon, 10 May 1999 UTC launched from the Taiyaun Space Center, China (TSC). Fengyun 1C debris stems from the Chinese weather satellite Fengyun-1C, which was intentionally destroyed by a Chinese anti-satellite missile in 2007. This event dramatically increased the amount of space debris, with thousands of trackable fragments posing hazards to satellites and human spaceflight. The Fengyun 1C debris cloud has become a focal point in discussions about space sustainability and the need for international regulations to prevent the creation of new debris.

Loading next visibility...
Identifier
30599, 1999-025AME
Orbit
SSO
Country
Flag of CNCN / PRC
Related business
Manufacturer
Unknown
Mission
Spacecraft
Bus & Motor
Unknown
Mass
Unknown
Launch date (UTC)
1999-05-10 (27 years ago)
Launch vehicle
Unknown
Launch site
Taiyaun Space Center, China (TSC)
Object type
Payload
Rocket body
Debris
Shape & HBR
Unknown shape, 0.1 m
Radar Cross Section
Small (<0.1 m²)

Expand to show TLE details & history
Last TLE update: 1 day ago

TLE from 1 day ago
0 FENGYUN 1C DEB
1 30599U 99025AME 26237.48395524  .00001412  00000-0  43293-3 0  9993
2 30599  98.5975 247.4739 0298757 324.0282  34.1107 14.20689972  7962
Epoch: 2026-08-25T11:36Z
TLE epoch observation values (Epoch: 2026-08-25T11:36:53.732Z)
Latitude
-0.00003°
Longitude
99.49937°
Altitude
649.882 km
Speed
7.624 km/s
True Right ascension
16h 29m 53s
True Declination
0° 00' 00"
Sunlit
Object was in daylight at epoch
Visualization orbit readout
Latitude
Unknown
Longitude
Unknown
Altitude
Unknown
Speed
Unknown
Apparent Right ascension
Unknown
Apparent Declination
Unknown
Sunlit
N/A
Visualization observer readout
Local Sidereal Time
12:04:09
Azimuth
Unknown
Elevation
Unknown
Doppler factor
Unknown
Orbital elements
Apogee altitude
1,035.223 km
Perigee altitude
605.114 km
Semi-major axis
7,198.306 km
Eccentricity
0.02988
Inclination
98.5975°
RAAN
247.4739°
Arg. of periapsis
324.0282°
True anomaly
36.09136°
Mean anomaly
34.1107°
Eccentric anomaly
35.09484°
Mean motion
3.55384 °/min
Orbital period
101.3 mins
BSTAR
0.00043293
Loading maneuver chart data...
Computing Atmospheric mass density...

Documentation

Showing up to 5 results
|